S-NET A (43188 NORAD) Tracking and Keplerian Element Data

This shows tracking and keplerian element data for the satellite.

Feedback or suggestion? Click here.




ElementValue
Catalog43188
NameS-NET A
Epoch Orbit11225
Epoch Day52.85912275
Epoch Year2020
RAAN322.5565
Inclination97.7014
Eccentricity0.0009677
Argument of Perigee254.4154
Mean Anonmoly105.6
Mean Motion14.96754363
Decay Rate-3.35E-06
L11 43188U 18014J 20052.85912275 -.00000335 00000-0 -24226-4 0 9999
L22 43188 97.7014 322.5565 0009677 254.4154 105.6000 14.96754363112257

Live tracking and technical data element details for S-NET A (NORAD 43188). S-NET A can be tracked NOW for your location showing map with azimuth and elevation plus other details from your city location.

Track the satellite on the map from your city or location and see movement details for azimuth, elevation, latitude, longitude, range, height, and movement on the map or in text.







IsCatalogInMostPopularTable: catalog: 43188, numindb: 435
Update: records affected: 1



GetName: 43188 S-NET A

Hit Count: updated at: Sun, 23 Feb 2020 07:20:31 GMT